Tracking 28333 objects as of 10-Dec-2023
HD Live streaming from Space Station
objects crossing your sky now

LINGQIAO VIDEO A

Track LINGQIAO VIDEO A now!
10-day predictions


NORAD ID: 40959
Int'l Code: 2015-057B
Perigee: 640.9 km
Apogee: 666.4 km
Inclination: 97.7 °
Period: 97.7 minutes
Semi major axis: 7024 km
RCS: Unknown
Launch date: October 7, 2015
Source: People's Republic of China (PRC)
Launch site: Jiuquan Satellite Launch Center, China (JSC)

LINGQIAO VIDEO A is a Chinese satellite designed for video capture.
Your satellite tracking list
Your tracking list is empty




NASA's NSSDC Master Catalog

Two Line Element Set (TLE):
1 40959U 15057B   23344.09873132  .00000568  00000-0  92253-4 0  9998
2 40959  97.6851  10.2685 0018108  20.1002 340.0917 14.74575432439675
Source of the keplerian elements: AFSPC